Regional Weather Roundup
Issued by NWS

Home | Current Version | Previous Version | Text Only | Print | Product List | Glossary On
Versions: 1 2 3 4 5 6 7 8 9 10 11 12 13 14 15 16 17 18 19 20 21 22 23 24 25 26 27 28 29 30 31 32 33 34 35 36 37 38 39 40 41 42 43 44 45 46 47 48 49 50
000
ASHW40 PHFO 300943
RWRHI

WEATHER ROUNDUP FOR HAWAII
NATIONAL WEATHER SERVICE HONOLULU HI
1100 PM HST TUE JUL 29 2014

THIS IS AN AUTOMATED REPORT THAT HAS NOT BEEN QUALITY CONTROLLED.

NOTE..."FAIR" INDICATES FEW OR NO CLOUDS BELOW 12,000 FEET WITH NO
SIGNIFICANT WEATHER AND/OR OBSTRUCTIONS TO VISIBILITY.

* - THESE SITES REPORT LIMITED FIELDS

HIZ001>004-301000-
KAUAI-NIIHAU-

CITY           SKY/WX    TMP DP  RH WIND       PRES   REMARKS
LIHUE APT      PTCLDY    78  67  68 NE14      30.08R
PORT ALLEN*      N/A     77 N/A N/A E8          N/A
POIPU*           N/A     79 N/A N/A NE8G16      N/A
PRINCEVILLE*   NOT AVBL
KOKOLE POINT*  NOT AVBL
MOLOAA DAIRY*  NOT AVBL
WAIMEA HTS*      N/A    N/A N/A N/A E3G9        N/A
PUU OPAE*        N/A     66  57  72 CALM        N/A
PUU LUA*       NOT AVBL
MAKAHA RIDGE*  NOT AVBL
$$

HIZ005>011-301000-
OAHU-

CITY           SKY/WX    TMP DP  RH WIND       PRES   REMARKS
HONOLULU       PTCLDY    78  65  63 NE9       30.04S
KALAELOA       CLEAR     76  64  66 E3        30.05S
KANEOHE MCB    MOCLDY    77  63  61 E9        30.06S
WHEELER FIELD  FAIR      74  64  69 VRB3      30.06S
BELLOWS*         N/A    N/A N/A N/A NE15        N/A
KAHUKU*          N/A    N/A N/A N/A E10G17      N/A
WHEELER*       NOT AVBL
WAIANAE HARBOR NOT AVBL
DILLINGHAM*      N/A     75  66  73 E2          N/A
KAHUKU TRN*      N/A     73  66  78 E12G18      N/A
KAWAILOA*      NOT AVBL
KII*             N/A     79  70  73 CALM        N/A
MAKUA RANGE*     N/A     77  64  65 NE3G10      N/A
OAHU FOREST NW   N/A     66  64  94 NE18G35     N/A
SCHOFIELD BRK*   N/A     72  64  78 MISG        N/A
SCHOFIELD S*   NOT AVBL
WAIANAE VLY*     N/A     73  63  68 W3G17       N/A
KUAOKALA*        N/A     72  64  78 CALM        N/A
HONOULIUULI*   NOT AVBL
MOKUOLOE IS*     N/A    N/A N/A N/A MISG        N/A
PALEHUA*         N/A     81  66  61 CALM        N/A
WAIAWA PHB*    NOT AVBL
$$

HIZ012>013-301000-
MOLOKAI-

CITY           SKY/WX    TMP DP  RH WIND       PRES   REMARKS
MOLOKAI AIRPT  CLEAR     75  68  78 NE9       30.05S
KALAUPAPA      NOT AVBL
MAKAPULAPAI*     N/A     77  66  69 E15G24      N/A
MOLOKAI 1*       N/A     64  57  77 E5G16       N/A
PUU ALII*        N/A     58  54  86 E3G13       N/A
$$

HIZ016-301000-
KAHOOLAWE-

CITY           SKY/WX    TMP DP  RH WIND       PRES   REMARKS
KAHOOLAWE*       N/A     70 N/A N/A E17G23      N/A
HAKIOAWA*        N/A     71  64  78 MISG      30.16S
HONOKANAIA*      N/A     78  67  68 NE12G24   30.05R
KANELOA*         N/A     75  66  73 E17G26    30.14S
KEALIALALO*      N/A    N/A N/A N/A E12G24    30.35S
LUA MAKIKA*    NOT AVBL
$$

HIZ014>015-301000-
LANAI-

CITY           SKY/WX    TMP DP  RH WIND       PRES   REMARKS
LANAI CITY     FAIR      70  67  90 N8        30.09S
LANAI 1*         N/A     70  70 100 NE13G21     N/A
$$

HIZ017>028-301000-
MAUI-

CITY           SKY/WX    TMP DP  RH WIND       PRES   REMARKS
KAHULUI        CLEAR     75  64  68 NE16      30.04S
KAPALUA-W MAUI NOT AVBL
HANA AIRPORT   PTCLDY    72  66  83 S3        30.08F
HANA*            N/A     73 N/A N/A S3          N/A
HALEAKALA SUMM   N/A     46  14  27 NE12        N/A
MAALAEA BAY*   NOT AVBL
HALEAKALA*     NOT AVBL
KAUPO GAP*       N/A     57  55  94 N3          N/A
KULA 1*          N/A    N/A N/A N/A E6          N/A
$$

HIZ023>026-301000-
BIG ISLAND OF HAWAII COAST AND LOWER SLOPES-

CITY           SKY/WX    TMP DP  RH WIND       PRES   REMARKS
KAILUA KONA    CLEAR     80  63  55 NE14      30.00R
HILO           CLOUDY    75  69  81 SW7       30.05S
HONOKAA*       NOT AVBL
KAWAIHAE MWT*    N/A     81 N/A N/A SW8         N/A
KAWAIHAE*        N/A     81 N/A N/A W8          N/A
SOUTH POINT*     N/A     72 N/A N/A E16G25      N/A
UPOLU AIRPORT*   N/A    N/A N/A N/A E16G24      N/A
KAMUELA*       MOSUNNY   63  61  94 N13       30.14S
HAKALAU*         N/A     45  43  93 SW3         N/A
KALOKO-HONOKO*   N/A     75  66  73 NE6       29.98S
PALI 2*          N/A     66  61  82 N12G18      N/A
KEALAKOMO*       N/A     79  70  73 NE12G18     N/A
KAUPULEHU*       N/A     72  57  60 E7G14       N/A
KAPAPALA*        N/A     68  64  87 NW3G9       N/A
LOWER KAHUKU*  NOT AVBL
PUHE CS*       NOT AVBL
PUHO CS*         N/A     76  69  79 E2          N/A
PTA KEAMUKU*     N/A     57  50  77 E12G18      N/A
WAIKOLOA*        N/A    N/A N/A N/A NE15G26     N/A
$$

HIZ027>028-301000-
BIG ISLAND OF HAWAII INTERIOR AND SUMMMITS-

CITY           SKY/WX    TMP DP  RH WIND       PRES   REMARKS
BRADSHAW FIELD PTCLDY    52  39  63 SE5       30.37S
MK VISITOR CEN   N/A      0   0 100 MISG        N/A
MAUNA KEA*       N/A     37 -11  12 CALM        N/A
MAUNA LOA*       N/A     43  -9  11 MISG        N/A
MAUNA LOA 1*   NOT AVBL
PTA KIPUKA*      N/A     50  48  93 SE3         N/A
PTA RANGE 17*    N/A     57  50  77 E9G15       N/A
PTA WEST*        N/A     55  54  94 S7          N/A
NENE CABIN*    NOT AVBL
AHUMOA*          N/A    N/A N/A N/A E7          N/A
PTA PORTABLE*  NOT AVBL
PUU MALI*      NOT AVBL
$$

HIC003-301000-
NORTHWEST ISLANDS-

CITY           SKY/WX    TMP DP  RH WIND       PRES   REMARKS
MIDWAY ISLAND  CLEAR     81  73  78 S10       30.05R
MIDWAY NOS*    NOT AVBL
FRENCH FRIGATE NOT AVBL
$$

PHZ110>124-180-301000-
BUOY REPORTS

STATION/POSITION TIME  TEMP    WIND        PRES    WAVE   SWELL
                       AIR SEA DIR/SP/G            HT/PER HT/DIR
                 (UTC) (F)     (DEG/KT/KT) (MB)    (FT/S) (FT/D)
BUOY 51001       NOT AVBL
BUOY 51101       NOT AVBL
BUOY 51100       0900   77     110/ 14     1018.4R
BUOY 51003       0900   80 81   70/ 10/ 12 1016.7R   6/ 8   5
BUOY 51004       0807   79 80   50/ 17/ 21 1015.3F   7/ 9   5/100
BARBERS PT BUOY  NOT AVBL
WAIMEA BAY BUOY  0900      80                N/A     2/13
KAILUA BAY BUOY  0900      80                N/A     5/ 8   2/100
LANAI BUOY       0900      80                N/A     3/14   2/200
BARBERS PT 2     0900      80                N/A     4/ 8   2/200
PAUWELA MAUI     0900      79                N/A     5/ 9
HILO             NOT AVBL
KANEOHE BAY BUOY 0900      79                N/A     5/ 5
HANALEI KAUAI    NOT AVBL
KAHULUI HARBOR   0900   77 81   20/ 11/ 14 1017.0F
HONOLULU HARBOR  0900   79     160/  2/  3 1017.4F
KILO NALU        NOT AVBL
HILO HARBOR      0900   74     240/  6/  7 1017.1F
MOKUOLOE         0900      83              1017.9F
NAWILIWILI       0900      82                N/A
WHOTS BUOY       NOT AVBL
BUOY 51028       NOT AVBL
$$

......................KEY........................................
  SKY/WX - SKY CONDITIONS/PRESENT WEATHER
  TMP    - TEMPERATURE IN FAHRENHEIT
  DWPT   - DEWPOINT IN FAHRENHEIT
  RH     - RELATIVE HUMIDITY IN PERCENT
  WIND   - DIRECTION AND SPEED /MPH FOR ISLANDS...KTS FOR BUOYS/
  PRES   - MEAN SEA LEVEL PRESSURE IN INCHES OF HG
  VSB    - VISIBILITY IN MILES
  HX     - HEAT INDEX
  WCI    - WIND CHILL INDEX
  VRB    - VARIABLE WIND DIRECTION
  N/A    - NOT AVAILABLE


USA.gov is the U.S. government's official web portal to all federal, state and local government web resources and services.